TRANSIT 11 DEB, 11991

Orbit data source: Space-Track

TRANSIT 11 DEB, 11991 is space debris in LEO originally from a launch on Fri, 28 Jan 1966 UTC launched from the Air Force Western Test Range (AFWTR). Debris objects in space refer to the collection of defunct objects orbiting the Earth. Examples of debris include non-operational satellites, rocket bodies, and fragments generated from explosions, collisions, or faulty payload assembly.

Loading next visibility...
Identifier
11991, 1966-005H
Orbit
LEO
Country
Flag of USUS
Related business
Manufacturer
Unknown
Mission
Spacecraft
Bus & Motor
Unknown
Mass
Unknown
Launch date (UTC)
1966-01-28 (60 years ago)
Launch vehicle
Unknown
Launch site
Air Force Western Test Range (AFWTR)
Object type
Payload
Rocket body
Debris
Shape & HBR
Unknown shape, 0.2 m
Radar Cross Section
Medium (>0.1 m² and <1 m²)

Expand to show TLE details & history
Last TLE update: 11 hours ago

TLE from 11 hours ago
0 TRANSIT 11 DEB
1 11991U 66005H   25342.99610338  .00001071  00000-0  84188-3 0  9994
2 11991  90.1621 339.1756 0174109 204.1636 210.4716 13.84553089995077
Epoch: 2025-12-08T23:54Z
TLE epoch observation values (Epoch: 2025-12-08T23:54:23.332Z)
Latitude
53.73586°
Longitude
-97.62858°
Altitude
1,067.204 km
Speed
7.268 km/s
True Right ascension
22h 35m 49s
True Declination
53° 34' 43"
Sunlit
Object was in daylight at epoch
Visualization orbit readout
Latitude
Unknown
Longitude
Unknown
Altitude
Unknown
Speed
Unknown
Apparent Right ascension
Unknown
Apparent Declination
Unknown
Sunlit
N/A
Visualization observer readout
Local Sidereal Time
09:00:18
Azimuth
Unknown
Elevation
Unknown
Doppler factor
Unknown
Orbital elements
Apogee altitude
1,072.279 km
Perigee altitude
817.281 km
Semi-major axis
7,322.917 km
Eccentricity
0.01741
Inclination
90.1621°
RAAN
339.1756°
Arg. of periapsis
204.1636°
True anomaly
209.47853°
Mean anomaly
210.4716°
Eccentric anomaly
209.97322°
Mean motion
3.46351 °/min
Orbital period
103.94 mins
BSTAR
0.00084188
Loading maneuver chart data...
Computing Atmospheric mass density...
Loading historical data...
Loading historical data...
Loading historical data...
Loading historical data...
Loading historical data...
Loading historical data...
Loading historical data...

Documentation

Showing up to 5 results
|